Location: Moydans
(44.3997°N, 5.5038°E)
Time: 16:08:45
(UTC+02:00)

Nauka - Pass Details

Date: 02 October 2021
Orbit: 417 x 423 km, 51.6° (Epoch: 26 October)

Event Time Altitude Azimuth Distance (km) Brightness Sun altitude
Rises 21:05:50 0° 299° (WNW) 2,364 ? -20.2°
Reaches altitude 10° 21:07:57 10° 296° (WNW) 1,499 ? -20.5°
Enters shadow 21:11:09 62° 230° (SW) 474 ? -21.1°
